Location: West Sayville
(40.7279°N, 73.0976°W)
Time: 04:30:30
(UTC+00:00)

Cosmos 1980 Rocket - Pass Details

Date: 29 October 2020
Orbit: 831 x 848 km, 71.0° (Epoch: 29 November)

Event Time Altitude Azimuth Distance (km) Brightness Sun altitude
Rises 22:33:40 0° 164° (SSE) 3,376 5.3 -8.5°
Reaches altitude 10° 22:36:38 10° 149° (SSE) 2,444 4.4 -9.1°
Maximum altitude 22:40:46 22° 101° (E) 1,767 3.3 -9.9°
Drops below altitude 10° 22:44:55 10° 53° (NE) 2,448 4.1 -10.6°
Enters shadow 22:45:02 10° 52° (NE) 2,479 4.1 -10.7°
